| time (UTC) | temp F | wind direction | speed MPH | gust MPH | rain 1hr in | rain 24hr in | rain mn in | humidity % | barometer mb |
| 20260902232425 | 97 | 109 | 5.0 | 12.0 | 0.00 | 0.00 | 0.00 | 16 | 1008.8 |
| 20260902231927 | 97 | 135 | 8.0 | 10.0 | 0.00 | 0.00 | 0.00 | 16 | 1008.8 |
| 20260902231429 | 98 | 317 | 3.0 | 11.0 | 0.00 | 0.00 | 0.00 | 15 | 1008.8 |
| 20260902230928 | 97 | 96 | 6.0 | 11.0 | 0.00 | 0.00 | 0.00 | 16 | 1008.8 |
| 20260902230430 | 97 | 122 | 5.0 | 17.0 | 0.00 | 0.00 | 0.00 | 16 | 1008.8 |
| 20260902225931 | 97 | 100 | 13.0 | 8.0 | 0.00 | 0.00 | 0.00 | 16 | 1008.8 |
| 20260902225430 | 97 | 78 | 4.0 | 7.0 | 0.00 | 0.00 | 0.00 | 16 | 1008.8 |
| 20260902224434 | 97 | 114 | 7.0 | 12.0 | 0.00 | 0.00 | 0.00 | 13 | 1008.8 |
| 20260902223932 | 98 | 285 | 5.0 | 12.0 | 0.00 | 0.00 | 0.00 | 13 | 1008.8 |
| 20260902223434 | 97 | 70 | 9.0 | 10.0 | 0.00 | 0.00 | 0.00 | 13 | 1008.8 |
| 20260902222936 | 98 | 346 | 4.0 | 11.0 | 0.00 | 0.00 | 0.00 | 13 | 1008.8 |
| 20260902222435 | 97 | 45 | 8.0 | 10.0 | 0.00 | 0.00 | 0.00 | 13 | 1008.8 |
| 20260902221937 | 98 | 63 | 4.0 | 10.0 | 0.00 | 0.00 | 0.00 | 13 | 1008.8 |
| 20260902221438 | 99 | 235 | 4.0 | 14.0 | 0.00 | 0.00 | 0.00 | 13 | 1008.8 |
| 20260902220937 | 98 | 70 | 5.0 | 9.0 | 0.00 | 0.00 | 0.00 | 13 | 1008.8 |
| 20260902215941 | 98 | 144 | 4.0 | 10.0 | 0.00 | 0.00 | 0.00 | 15 | 1008.8 |
| 20260902215439 | 97 | 87 | 6.0 | 8.0 | 0.00 | 0.00 | 0.00 | 15 | 1008.8 |
| 20260902214941 | 97 | 356 | 5.0 | 8.0 | 0.00 | 0.00 | 0.00 | 16 | 1008.8 |
| 20260902214438 | 98 | 41 | 5.0 | 9.0 | 0.00 | 0.00 | 0.00 | 15 | 1008.8 |
| 20260902213937 | 99 | 334 | 4.0 | 11.0 | 0.00 | 0.00 | 0.00 | 15 | 1008.8 |
| 20260902213434 | 97 | 130 | 8.0 | 8.0 | 0.00 | 0.00 | 0.00 | 16 | 1009.8 |
| 20260902212930 | 97 | 356 | 3.0 | 10.0 | 0.00 | 0.00 | 0.00 | 16 | 1009.8 |
| 20260902212429 | 96 | 25 | 7.0 | 11.0 | 0.00 | 0.00 | 0.00 | 16 | 1009.8 |
| 20260902211931 | 97 | 265 | 5.0 | 10.0 | 0.00 | 0.00 | 0.00 | 16 | 1009.8 |
| 20260902211433 | 98 | 158 | 5.0 | 11.0 | 0.00 | 0.00 | 0.00 | 15 | 1009.8 |
| 20260902210927 | 97 | 100 | 4.0 | 7.0 | 0.00 | 0.00 | 0.00 | 16 | 1009.8 |
| 20260902210429 | 97 | 93 | 4.0 | 9.0 | 0.00 | 0.00 | 0.00 | 16 | 1009.8 |
| 20260902205931 | 96 | 334 | 4.0 | 10.0 | 0.00 | 0.00 | 0.00 | 16 | 1009.8 |
| 20260902205429 | 96 | 25 | 4.0 | 10.0 | 0.00 | 0.00 | 0.00 | 16 | 1009.8 |
| 20260902204931 | 96 | 44 | 7.0 | 11.0 | 0.00 | 0.00 | 0.00 | 16 | 1009.8 |
| 20260902204428 | 98 | 13 | 3.0 | 11.0 | 0.00 | 0.00 | 0.00 | 15 | 1009.8 |
| 20260902203927 | 97 | 45 | 5.0 | 12.0 | 0.00 | 0.00 | 0.00 | 16 | 1009.8 |
| 20260902203428 | 96 | 71 | 7.0 | 9.0 | 0.00 | 0.00 | 0.00 | 16 | 1009.8 |
| 20260902202930 | 97 | 320 | 5.0 | 10.0 | 0.00 | 0.00 | 0.00 | 16 | 1009.8 |
| 20260902202429 | 97 | 263 | 5.0 | 10.0 | 0.00 | 0.00 | 0.00 | 16 | 1009.8 |
| 20260902201931 | 97 | 165 | 4.0 | 15.0 | 0.00 | 0.00 | 0.00 | 16 | 1009.8 |
| 20260902201433 | 96 | 62 | 5.0 | 12.0 | 0.00 | 0.00 | 0.00 | 16 | 1009.8 |
| 20260902200926 | 96 | 22 | 7.0 | 8.0 | 0.00 | 0.00 | 0.00 | 16 | 1009.8 |
| 20260902200428 | 95 | 34 | 5.0 | 11.0 | 0.00 | 0.00 | 0.00 | 16 | 1010.8 |
| 20260902195930 | 96 | 273 | 5.0 | 12.0 | 0.00 | 0.00 | 0.00 | 16 | 1010.8 |
| 20260902195429 | 95 | 115 | 4.0 | 10.0 | 0.00 | 0.00 | 0.00 | 16 | 1010.8 |
| 20260902194926 | 96 | 31 | 6.0 | 8.0 | 0.00 | 0.00 | 0.00 | 16 | 1010.8 |
| 20260902194423 | 96 | 52 | 4.0 | 7.0 | 0.00 | 0.00 | 0.00 | 16 | 1010.8 |
| 20260902193917 | 96 | 118 | 5.0 | 9.0 | 0.00 | 0.00 | 0.00 | 16 | 1010.8 |
| 20260902193419 | 95 | 110 | 0.0 | 8.0 | 0.00 | 0.00 | 0.00 | 16 | 1010.8 |
| 20260902192921 | 96 | 136 | 4.0 | 10.0 | 0.00 | 0.00 | 0.00 | 16 | 1010.8 |
| 20260902192420 | 95 | 223 | 5.0 | 10.0 | 0.00 | 0.00 | 0.00 | 16 | 1010.8 |
| 20260902191922 | 96 | 43 | 4.0 | 9.0 | 0.00 | 0.00 | 0.00 | 16 | 1010.8 |
| 20260902191423 | 95 | 16 | 4.0 | 11.0 | 0.00 | 0.00 | 0.00 | 16 | 1010.8 |
| 20260902190917 | 95 | 347 | 5.0 | 10.0 | 0.00 | 0.00 | 0.00 | 16 | 1010.8 |
| 20260902190419 | 94 | 10 | 5.0 | 8.0 | 0.00 | 0.00 | 0.00 | 17 | 1011.8 |
| 20260902185921 | 95 | 295 | 3.0 | 7.0 | 0.00 | 0.00 | 0.00 | 16 | 1011.8 |
| 20260902185419 | 94 | 25 | 4.0 | 10.0 | 0.00 | 0.00 | 0.00 | 17 | 1011.8 |
| 20260902184921 | 95 | 162 | 5.0 | 9.0 | 0.00 | 0.00 | 0.00 | 16 | 1011.8 |
| 20260902184423 | 95 | 109 | 6.0 | 10.0 | 0.00 | 0.00 | 0.00 | 16 | 1011.8 |
| 20260902183917 | 95 | 8 | 6.0 | 13.0 | 0.00 | 0.00 | 0.00 | 16 | 1011.8 |
| 20260902183419 | 95 | 5 | 6.0 | 8.0 | 0.00 | 0.00 | 0.00 | 16 | 1011.8 |
| 20260902182921 | 94 | 12 | 4.0 | 10.0 | 0.00 | 0.00 | 0.00 | 17 | 1011.8 |
| 20260902182415 | 94 | 10 | 4.0 | 10.0 | 0.00 | 0.00 | 0.00 | 17 | 1011.8 |
| 20260902181917 | 94 | 103 | 7.0 | 9.0 | 0.00 | 0.00 | 0.00 | 17 | 1011.8 |
| 20260902181419 | 95 | 114 | 5.0 | 9.0 | 0.00 | 0.00 | 0.00 | 17 | 1011.8 |
| 20260902180917 | 94 | 351 | 5.0 | 8.0 | 0.00 | 0.00 | 0.00 | 17 | 1011.8 |
| 20260902180419 | 94 | 85 | 0.0 | 11.0 | 0.00 | 0.00 | 0.00 | 17 | 1012.8 |
| 20260902175917 | 94 | 91 | 6.0 | 4.0 | 0.00 | 0.00 | 0.00 | 17 | 1012.8 |
| 20260902175415 | 94 | 113 | 0.0 | 12.0 | 0.00 | 0.00 | 0.00 | 17 | 1012.8 |
| 20260902174917 | 94 | 101 | 0.0 | 6.0 | 0.00 | 0.00 | 0.00 | 17 | 1012.8 |
| 20260902174419 | 94 | 12 | 3.0 | 8.0 | 0.00 | 0.00 | 0.00 | 17 | 1012.8 |
| 20260902173917 | 93 | 278 | 3.0 | 8.0 | 0.00 | 0.00 | 0.00 | 17 | 1012.8 |
| 20260902173419 | 94 | 114 | 5.0 | 9.0 | 0.00 | 0.00 | 0.00 | 17 | 1012.8 |
| 20260902172921 | 94 | 335 | 3.0 | 8.0 | 0.00 | 0.00 | 0.00 | 17 | 1012.8 |
| 20260902172419 | 94 | 114 | 4.0 | 11.0 | 0.00 | 0.00 | 0.00 | 17 | 1012.8 |
| 20260902171921 | 92 | 114 | 9.0 | 12.0 | 0.00 | 0.00 | 0.00 | 18 | 1012.8 |
| 20260902171423 | 94 | 88 | 5.0 | 10.0 | 0.00 | 0.00 | 0.00 | 17 | 1012.8 |
| 20260902170922 | 92 | 113 | 7.0 | 10.0 | 0.00 | 0.00 | 0.00 | 18 | 1012.8 |
| 20260902170424 | 92 | 109 | 7.0 | 5.0 | 0.00 | 0.00 | 0.00 | 18 | 1012.8 |
| 20260902165925 | 93 | 76 | 4.0 | 7.0 | 0.00 | 0.00 | 0.00 | 18 | 1012.8 |
| 20260902165424 | 93 | 112 | 4.0 | 7.0 | 0.00 | 0.00 | 0.00 | 18 | 1012.8 |
| 20260902164926 | 92 | 119 | 0.0 | 8.0 | 0.00 | 0.00 | 0.00 | 18 | 1012.8 |
| 20260902164428 | 92 | 118 | 3.0 | 7.0 | 0.00 | 0.00 | 0.00 | 18 | 1012.8 |
| 20260902163926 | 92 | 140 | 4.0 | 7.0 | 0.00 | 0.00 | 0.00 | 18 | 1012.8 |
| 20260902163428 | 90 | 88 | 4.0 | 6.0 | 0.00 | 0.00 | 0.00 | 19 | 1013.8 |
| 20260902162930 | 91 | 116 | 0.0 | 11.0 | 0.00 | 0.00 | 0.00 | 19 | 1013.8 |
| 20260902162429 | 90 | 88 | 9.0 | 7.0 | 0.00 | 0.00 | 0.00 | 20 | 1013.8 |
| 20260902161930 | 91 | 351 | 4.0 | 8.0 | 0.00 | 0.00 | 0.00 | 19 | 1013.8 |
| 20260902161432 | 90 | 79 | 5.0 | 5.0 | 0.00 | 0.00 | 0.00 | 20 | 1013.8 |
| 20260902160926 | 89 | 347 | 4.0 | 7.0 | 0.00 | 0.00 | 0.00 | 21 | 1013.8 |
| 20260902160428 | 89 | 17 | 5.0 | 10.0 | 0.00 | 0.00 | 0.00 | 22 | 1013.8 |
| 20260902155930 | 90 | 125 | 5.0 | 7.0 | 0.00 | 0.00 | 0.00 | 21 | 1013.8 |
| 20260902154916 | 90 | 209 | 3.0 | 6.0 | 0.00 | 0.00 | 0.00 | 23 | 1013.8 |
| 20260902154417 | 89 | 336 | 0.0 | 5.0 | 0.00 | 0.00 | 0.00 | 23 | 1013.8 |
| 20260902153912 | 89 | 356 | 0.0 | 7.0 | 0.00 | 0.00 | 0.00 | 25 | 1013.8 |
| 20260902153413 | 89 | 122 | 0.0 | 6.0 | 0.00 | 0.00 | 0.00 | 26 | 1013.8 |
| 20260902152915 | 88 | 125 | 0.0 | 7.0 | 0.00 | 0.00 | 0.00 | 25 | 1013.8 |
| 20260902152414 | 87 | 126 | 4.0 | 7.0 | 0.00 | 0.00 | 0.00 | 27 | 1013.8 |
| 20260902151916 | 88 | 62 | 0.0 | 4.0 | 0.00 | 0.00 | 0.00 | 27 | 1013.8 |
| 20260902151418 | 88 | 61 | 0.0 | 4.0 | 0.00 | 0.00 | 0.00 | 28 | 1013.8 |
| 20260902150916 | 88 | 61 | 0.0 | 4.0 | 0.00 | 0.00 | 0.00 | 28 | 1013.8 |
| 20260902150418 | 87 | 60 | 0.0 | 7.0 | 0.00 | 0.00 | 0.00 | 28 | 1013.8 |
| 20260902145920 | 87 | 108 | 0.0 | 4.0 | 0.00 | 0.00 | 0.00 | 29 | 1013.8 |
| 20260902145418 | 87 | 117 | 0.0 | 6.0 | 0.00 | 0.00 | 0.00 | 29 | 1013.8 |
| 20260902144920 | 86 | 117 | 3.0 | 7.0 | 0.00 | 0.00 | 0.00 | 30 | 1013.8 |
| 20260902144422 | 86 | 317 | 0.0 | 6.0 | 0.00 | 0.00 | 0.00 | 31 | 1013.8 |
| 20260902143921 | 86 | 98 | 4.0 | 5.0 | 0.00 | 0.00 | 0.00 | 31 | 1013.8 |
| 20260902143418 | 85 | 107 | 4.0 | 7.0 | 0.00 | 0.00 | 0.00 | 32 | 1013.8 |
| 20260902142920 | 85 | 121 | 5.0 | 7.0 | 0.00 | 0.00 | 0.00 | 33 | 1013.8 |
| 20260902142419 | 85 | 111 | 0.0 | 7.0 | 0.00 | 0.00 | 0.00 | 34 | 1013.8 |
| 20260902141911 | 84 | 116 | 4.0 | 8.0 | 0.00 | 0.00 | 0.00 | 35 | 1013.8 |
| 20260902141413 | 84 | 134 | 5.0 | 8.0 | 0.00 | 0.00 | 0.00 | 35 | 1013.8 |
| 20260902140911 | 83 | 113 | 4.0 | 9.0 | 0.00 | 0.00 | 0.00 | 37 | 1013.8 |
| 20260902140408 | 83 | 112 | 7.0 | 8.0 | 0.00 | 0.00 | 0.00 | 38 | 1013.8 |
| 20260902135910 | 83 | 110 | 5.0 | 8.0 | 0.00 | 0.00 | 0.00 | 38 | 1013.8 |
| 20260902135404 | 83 | 130 | 7.0 | 8.0 | 0.00 | 0.00 | 0.00 | 39 | 1013.8 |
| 20260902134906 | 83 | 117 | 6.0 | 6.0 | 0.00 | 0.00 | 0.00 | 39 | 1013.8 |
| 20260902134408 | 83 | 99 | 4.0 | 7.0 | 0.00 | 0.00 | 0.00 | 39 | 1013.8 |
| 20260902133907 | 83 | 109 | 4.0 | 5.0 | 0.00 | 0.00 | 0.00 | 40 | 1013.8 |
| 20260902133408 | 83 | 126 | 0.0 | 5.0 | 0.00 | 0.00 | 0.00 | 40 | 1013.8 |
| 20260902132910 | 83 | 116 | 0.0 | 5.0 | 0.00 | 0.00 | 0.00 | 41 | 1013.8 |
| 20260902132409 | 82 | 117 | 0.0 | 6.0 | 0.00 | 0.00 | 0.00 | 42 | 1013.8 |
| 20260902131911 | 81 | 117 | 3.0 | 6.0 | 0.00 | 0.00 | 0.00 | 43 | 1012.8 |
| 20260902131412 | 81 | 118 | 3.0 | 5.0 | 0.00 | 0.00 | 0.00 | 44 | 1012.8 |
| 20260902130911 | 81 | 119 | 3.0 | 6.0 | 0.00 | 0.00 | 0.00 | 45 | 1012.8 |
| 20260902130413 | 81 | 116 | 3.0 | 4.0 | 0.00 | 0.00 | 0.00 | 45 | 1012.8 |
| 20260902125915 | 81 | 116 | 3.0 | 5.0 | 0.00 | 0.00 | 0.00 | 46 | 1012.8 |
| 20260902125414 | 80 | 115 | 0.0 | 5.0 | 0.00 | 0.00 | 0.00 | 45 | 1012.8 |
| 20260902124915 | 80 | 115 | 3.0 | 6.0 | 0.00 | 0.00 | 0.00 | 45 | 1012.8 |
| 20260902124417 | 80 | 115 | 6.0 | 7.0 | 0.00 | 0.00 | 0.00 | 46 | 1012.8 |
| 20260902123916 | 79 | 114 | 5.0 | 8.0 | 0.00 | 0.00 | 0.00 | 46 | 1012.8 |
| 20260902123418 | 79 | 117 | 6.0 | 7.0 | 0.00 | 0.00 | 0.00 | 47 | 1012.8 |
| 20260902122919 | 79 | 116 | 5.0 | 5.0 | 0.00 | 0.00 | 0.00 | 48 | 1012.8 |
| 20260902122418 | 79 | 117 | 3.0 | 0.0 | 0.00 | 0.00 | 0.00 | 48 | 1012.8 |
| 20260902121920 | 79 | 117 | 0.0 | 5.0 | 0.00 | 0.00 | 0.00 | 49 | 1012.8 |
| 20260902121422 | 79 | 117 | 4.0 | 6.0 | 0.00 | 0.00 | 0.00 | 48 | 1012.8 |
| 20260902120920 | 79 | 117 | 5.0 | 7.0 | 0.00 | 0.00 | 0.00 | 48 | 1012.8 |
| 20260902120422 | 79 | 116 | 5.0 | 6.0 | 0.00 | 0.00 | 0.00 | 48 | 1012.8 |
| 20260902115924 | 79 | 116 | 5.0 | 5.0 | 0.00 | 0.00 | 0.00 | 47 | 1012.8 |
| 20260902115423 | 79 | 116 | 4.0 | 5.0 | 0.00 | 0.00 | 0.00 | 46 | 1012.8 |
| 20260902114925 | 79 | 116 | 4.0 | 5.0 | 0.00 | 0.00 | 0.00 | 47 | 1012.8 |
| 20260902114426 | 79 | 116 | 4.0 | 6.0 | 0.00 | 0.00 | 0.00 | 46 | 1012.8 |
| 20260902113925 | 79 | 116 | 5.0 | 6.0 | 0.00 | 0.00 | 0.00 | 46 | 1012.8 |
| 20260902113427 | 79 | 116 | 5.0 | 7.0 | 0.00 | 0.00 | 0.00 | 45 | 1012.8 |
| 20260902112929 | 79 | 116 | 6.0 | 6.0 | 0.00 | 0.00 | 0.00 | 45 | 1012.8 |
| 20260902112427 | 80 | 123 | 6.0 | 5.0 | 0.00 | 0.00 | 0.00 | 45 | 1012.8 |
| 20260902111929 | 80 | 126 | 4.0 | 5.0 | 0.00 | 0.00 | 0.00 | 45 | 1012.8 |
| 20260902111431 | 80 | 125 | 4.0 | 5.0 | 0.00 | 0.00 | 0.00 | 44 | 1012.8 |
| 20260902110930 | 80 | 125 | 4.0 | 7.0 | 0.00 | 0.00 | 0.00 | 44 | 1012.8 |
| 20260902110432 | 81 | 126 | 6.0 | 4.0 | 0.00 | 0.00 | 0.00 | 44 | 1012.8 |
| 20260902105933 | 80 | 162 | 0.0 | 4.0 | 0.00 | 0.00 | 0.00 | 45 | 1012.8 |
| 20260902105432 | 80 | 175 | 4.0 | 4.0 | 0.00 | 0.00 | 0.00 | 45 | 1012.8 |
| 20260902104934 | 80 | 183 | 0.0 | 4.0 | 0.00 | 0.00 | 0.00 | 45 | 1012.8 |
| 20260902104436 | 81 | 184 | 0.0 | 4.0 | 0.00 | 0.00 | 0.00 | 43 | 1012.8 |
| 20260902103934 | 81 | 184 | 3.0 | 4.0 | 0.00 | 0.00 | 0.00 | 42 | 1012.8 |
| 20260902103436 | 81 | 184 | 0.0 | 3.0 | 0.00 | 0.00 | 0.00 | 41 | 1012.8 |
| 20260902102938 | 81 | 184 | 0.0 | 4.0 | 0.00 | 0.00 | 0.00 | 41 | 1012.8 |
| 20260902102437 | 81 | 184 | 0.0 | 0.0 | 0.00 | 0.00 | 0.00 | 41 | 1012.8 |
| 20260902101938 | 81 | 184 | 0.0 | 0.0 | 0.00 | 0.00 | 0.00 | 41 | 1012.8 |
| 20260902100939 | 81 | 184 | 0.0 | 3.0 | 0.00 | 0.00 | 0.00 | 41 | 1012.8 |
| 20260902100441 | 81 | 184 | 0.0 | 4.0 | 0.00 | 0.00 | 0.00 | 41 | 1012.8 |
| 20260902095943 | 81 | 184 | 3.0 | 4.0 | 0.00 | 0.00 | 0.00 | 41 | 1012.8 |
| 20260902095441 | 81 | 184 | 0.0 | 4.0 | 0.00 | 0.00 | 0.00 | 40 | 1012.8 |
| 20260902094943 | 81 | 185 | 0.0 | 3.0 | 0.00 | 0.00 | 0.00 | 40 | 1012.8 |
| 20260902094445 | 81 | 184 | 0.0 | 0.0 | 0.00 | 0.00 | 0.00 | 40 | 1012.8 |
| 20260902093943 | 82 | 185 | 0.0 | 0.0 | 0.00 | 0.00 | 0.00 | 40 | 1012.8 |
| 20260902093445 | 82 | 185 | 0.0 | 0.0 | 0.00 | 0.00 | 0.00 | 39 | 1012.8 |
| 20260902092947 | 82 | 185 | 0.0 | 3.0 | 0.00 | 0.00 | 0.00 | 39 | 1012.8 |
| 20260902092446 | 82 | 184 | 0.0 | 4.0 | 0.00 | 0.00 | 0.00 | 39 | 1012.8 |
| 20260902091948 | 82 | 184 | 0.0 | 4.0 | 0.00 | 0.00 | 0.00 | 39 | 1012.8 |
| 20260902091449 | 82 | 185 | 0.0 | 0.0 | 0.00 | 0.00 | 0.00 | 38 | 1012.8 |
| 20260902090948 | 82 | 191 | 0.0 | 3.0 | 0.00 | 0.00 | 0.00 | 37 | 1012.8 |
| 20260902090450 | 82 | 192 | 0.0 | 4.0 | 0.00 | 0.00 | 0.00 | 37 | 1012.8 |
| 20260902085952 | 82 | 191 | 3.0 | 4.0 | 0.00 | 0.00 | 0.00 | 37 | 1012.8 |
| 20260902085450 | 82 | 191 | 0.0 | 5.0 | 0.00 | 0.00 | 0.00 | 36 | 1012.8 |
| 20260902084952 | 82 | 194 | 0.0 | 6.0 | 0.00 | 0.00 | 0.00 | 36 | 1012.8 |
| 20260902084454 | 83 | 192 | 3.0 | 4.0 | 0.00 | 0.00 | 0.00 | 35 | 1012.8 |
| 20260902083953 | 83 | 189 | 0.0 | 5.0 | 0.00 | 0.00 | 0.00 | 35 | 1012.8 |
| 20260902083455 | 83 | 187 | 0.0 | 4.0 | 0.00 | 0.00 | 0.00 | 34 | 1012.8 |
| 20260902082956 | 83 | 194 | 3.0 | 5.0 | 0.00 | 0.00 | 0.00 | 34 | 1012.8 |
| 20260902082455 | 83 | 198 | 0.0 | 4.0 | 0.00 | 0.00 | 0.00 | 34 | 1012.8 |
| 20260902081957 | 83 | 194 | 3.0 | 6.0 | 0.00 | 0.00 | 0.00 | 33 | 1012.8 |
| 20260902081459 | 83 | 192 | 3.0 | 6.0 | 0.00 | 0.00 | 0.00 | 32 | 1012.8 |
| 20260902080957 | 83 | 179 | 4.0 | 5.0 | 0.00 | 0.00 | 0.00 | 32 | 1012.8 |
| 20260902080454 | 83 | 156 | 3.0 | 6.0 | 0.00 | 0.00 | 0.00 | 32 | 1012.8 |
| 20260902075956 | 83 | 174 | 3.0 | 4.0 | 0.00 | 0.00 | 0.00 | 32 | 1012.8 |
| 20260902075450 | 83 | 182 | 3.0 | 6.0 | 0.00 | 0.00 | 0.00 | 32 | 1012.8 |
| 20260902074951 | 84 | 160 | 4.0 | 6.0 | 0.00 | 0.00 | 0.00 | 32 | 1012.8 |
| 20260902074453 | 84 | 171 | 0.0 | 8.0 | 0.00 | 0.00 | 0.00 | 31 | 1012.8 |
| 20260902073952 | 84 | 124 | 4.0 | 6.0 | 0.00 | 0.00 | 0.00 | 31 | 1012.8 |
| 20260902073454 | 84 | 146 | 4.0 | 4.0 | 0.00 | 0.00 | 0.00 | 31 | 1012.8 |
| 20260902072956 | 84 | 202 | 0.0 | 7.0 | 0.00 | 0.00 | 0.00 | 31 | 1012.8 |
| 20260902072454 | 84 | 169 | 4.0 | 7.0 | 0.00 | 0.00 | 0.00 | 31 | 1012.8 |
| 20260902071956 | 84 | 185 | 3.0 | 10.0 | 0.00 | 0.00 | 0.00 | 31 | 1012.8 |
| 20260902071458 | 84 | 134 | 6.0 | 9.0 | 0.00 | 0.00 | 0.00 | 31 | 1012.8 |
| 20260902070956 | 84 | 216 | 7.0 | 10.0 | 0.00 | 0.00 | 0.00 | 30 | 1012.8 |
| 20260902070454 | 84 | 223 | 6.0 | 9.0 | 0.00 | 0.00 | 0.00 | 30 | 1012.8 |
| 20260902065956 | 85 | 160 | 5.0 | 9.0 | 0.00 | 0.00 | 0.00 | 30 | 1012.8 |
| 20260902065454 | 85 | 159 | 6.0 | 8.0 | 0.00 | 0.00 | 0.00 | 30 | 1012.8 |
| 20260902064951 | 85 | 135 | 4.0 | 9.0 | 0.00 | 0.00 | 0.00 | 30 | 1012.8 |
| 20260902063952 | 85 | 216 | 4.0 | 11.0 | 0.00 | 0.00 | 0.00 | 30 | 1012.8 |
| 20260902063453 | 85 | 129 | 5.0 | 13.0 | 0.00 | 0.00 | 0.00 | 29 | 1012.8 |
| 20260902062955 | 85 | 124 | 7.0 | 9.0 | 0.00 | 0.00 | 0.00 | 29 | 1012.8 |
| 20260902062454 | 85 | 134 | 4.0 | 13.0 | 0.00 | 0.00 | 0.00 | 29 | 1012.8 |
| 20260902061956 | 85 | 166 | 6.0 | 13.0 | 0.00 | 0.00 | 0.00 | 29 | 1012.8 |
| 20260902061458 | 85 | 157 | 9.0 | 10.0 | 0.00 | 0.00 | 0.00 | 29 | 1012.8 |
| 20260902060952 | 85 | 144 | 8.0 | 11.0 | 0.00 | 0.00 | 0.00 | 29 | 1012.8 |
| 20260902060453 | 85 | 126 | 8.0 | 14.0 | 0.00 | 0.00 | 0.00 | 29 | 1012.8 |
| 20260902055955 | 85 | 157 | 7.0 | 11.0 | 0.00 | 0.00 | 0.00 | 29 | 1012.8 |
| 20260902055454 | 85 | 125 | 6.0 | 14.0 | 0.00 | 0.00 | 0.00 | 29 | 1012.8 |
| 20260902054956 | 85 | 139 | 9.0 | 14.0 | 0.00 | 0.00 | 0.00 | 29 | 1012.8 |
| 20260902053956 | 86 | 131 | 7.0 | 14.0 | 0.00 | 0.00 | 0.00 | 29 | 1011.8 |
| 20260902053458 | 86 | 138 | 9.0 | 11.0 | 0.00 | 0.00 | 0.00 | 29 | 1011.8 |
| 20260902053000 | 86 | 128 | 6.0 | 12.0 | 0.00 | 0.00 | 0.00 | 29 | 1011.8 |
| 20260902052459 | 86 | 115 | 9.0 | 12.0 | 0.00 | 0.00 | 0.00 | 28 | 1011.8 |
| 20260902052000 | 86 | 164 | 7.0 | 15.0 | 0.00 | 0.00 | 0.00 | 28 | 1011.8 |
| 20260902051502 | 86 | 145 | 8.0 | 12.0 | 0.00 | 0.00 | 0.00 | 28 | 1012.8 |
| 20260902051001 | 87 | 134 | 6.0 | 16.0 | 0.00 | 0.00 | 0.00 | 28 | 1012.8 |
| 20260902050503 | 87 | 118 | 7.0 | 15.0 | 0.00 | 0.00 | 0.00 | 27 | 1012.8 |
| 20260902045955 | 87 | 130 | 12.0 | 13.0 | 0.00 | 0.00 | 0.00 | 27 | 1012.8 |
| 20260902045453 | 87 | 125 | 7.0 | 15.0 | 0.00 | 0.00 | 0.00 | 25 | 1012.8 |
| 20260902044955 | 87 | 118 | 10.0 | 18.0 | 0.00 | 0.00 | 0.00 | 24 | 1012.8 |
| 20260902044457 | 88 | 115 | 11.0 | 15.0 | 0.00 | 0.00 | 0.00 | 23 | 1011.8 |
| 20260902043956 | 88 | 107 | 10.0 | 16.0 | 0.00 | 0.00 | 0.00 | 22 | 1011.8 |
| 20260902043457 | 88 | 141 | 12.0 | 13.0 | 0.00 | 0.00 | 0.00 | 21 | 1011.8 |
| 20260902042959 | 89 | 130 | 11.0 | 8.0 | 0.00 | 0.00 | 0.00 | 20 | 1011.8 |
| 20260902042458 | 89 | 121 | 5.0 | 8.0 | 0.00 | 0.00 | 0.00 | 20 | 1011.8 |
| 20260902042000 | 89 | 125 | 7.0 | 8.0 | 0.00 | 0.00 | 0.00 | 19 | 1011.8 |
| 20260902041502 | 89 | 122 | 6.0 | 8.0 | 0.00 | 0.00 | 0.00 | 19 | 1011.8 |
| 20260902041000 | 89 | 123 | 7.0 | 7.0 | 0.00 | 0.00 | 0.00 | 19 | 1011.8 |
| 20260902040502 | 89 | 127 | 4.0 | 8.0 | 0.00 | 0.00 | 0.00 | 19 | 1011.8 |
| 20260902040004 | 90 | 125 | 4.0 | 7.0 | 0.00 | 0.00 | 0.00 | 19 | 1011.8 |
| 20260902035503 | 90 | 121 | 6.0 | 7.0 | 0.00 | 0.00 | 0.00 | 19 | 1011.8 |
| 20260902035004 | 90 | 123 | 5.0 | 8.0 | 0.00 | 0.00 | 0.00 | 19 | 1011.8 |
| 20260902033950 | 90 | 115 | 5.0 | 7.0 | 0.00 | 0.00 | 0.00 | 18 | 1011.8 |
| 20260902033452 | 90 | 118 | 4.0 | 9.0 | 0.00 | 0.00 | 0.00 | 18 | 1011.8 |
| 20260902032452 | 91 | 126 | 4.0 | 9.0 | 0.00 | 0.00 | 0.00 | 18 | 1011.8 |
| 20260902031954 | 91 | 116 | 5.0 | 9.0 | 0.00 | 0.00 | 0.00 | 18 | 1011.8 |
| 20260902031456 | 91 | 139 | 6.0 | 8.0 | 0.00 | 0.00 | 0.00 | 17 | 1011.8 |
| 20260902030955 | 91 | 117 | 7.0 | 9.0 | 0.00 | 0.00 | 0.00 | 17 | 1011.8 |
| 20260902030456 | 92 | 110 | 6.0 | 9.0 | 0.00 | 0.00 | 0.00 | 17 | 1011.8 |
| 20260902025958 | 92 | 116 | 7.0 | 9.0 | 0.00 | 0.00 | 0.00 | 17 | 1011.8 |
| 20260902025457 | 92 | 119 | 6.0 | 9.0 | 0.00 | 0.00 | 0.00 | 17 | 1011.8 |
| 20260902024959 | 92 | 112 | 7.0 | 8.0 | 0.00 | 0.00 | 0.00 | 17 | 1011.8 |
| 20260902023959 | 92 | 121 | 7.0 | 10.0 | 0.00 | 0.00 | 0.00 | 17 | 1010.8 |
| 20260902023451 | 92 | 116 | 8.0 | 10.0 | 0.00 | 0.00 | 0.00 | 17 | 1010.8 |
| 20260902022953 | 92 | 113 | 8.0 | 11.0 | 0.00 | 0.00 | 0.00 | 17 | 1010.8 |
| 20260902022452 | 92 | 137 | 7.0 | 10.0 | 0.00 | 0.00 | 0.00 | 17 | 1010.8 |
| 20260902021949 | 92 | 123 | 8.0 | 12.0 | 0.00 | 0.00 | 0.00 | 17 | 1010.8 |
| 20260902021451 | 93 | 107 | 9.0 | 11.0 | 0.00 | 0.00 | 0.00 | 17 | 1010.8 |
| 20260902020940 | 93 | 114 | 9.0 | 10.0 | 0.00 | 0.00 | 0.00 | 17 | 1010.8 |
| 20260902020442 | 93 | 113 | 5.0 | 10.0 | 0.00 | 0.00 | 0.00 | 17 | 1010.8 |
| 20260902015943 | 93 | 119 | 9.0 | 10.0 | 0.00 | 0.00 | 0.00 | 17 | 1010.8 |
| 20260902015432 | 93 | 108 | 8.0 | 9.0 | 0.00 | 0.00 | 0.00 | 17 | 1010.8 |
| 20260902014934 | 93 | 113 | 7.0 | 9.0 | 0.00 | 0.00 | 0.00 | 16 | 1010.8 |
| 20260902014436 | 93 | 116 | 6.0 | 8.0 | 0.00 | 0.00 | 0.00 | 16 | 1010.8 |
| 20260902013930 | 94 | 109 | 6.0 | 10.0 | 0.00 | 0.00 | 0.00 | 16 | 1010.8 |
| 20260902013432 | 94 | 114 | 7.0 | 11.0 | 0.00 | 0.00 | 0.00 | 16 | 1010.8 |
| 20260902012932 | 94 | 113 | 8.0 | 9.0 | 0.00 | 0.00 | 0.00 | 16 | 1010.8 |
| 20260902012430 | 94 | 115 | 7.0 | 10.0 | 0.00 | 0.00 | 0.00 | 16 | 1010.8 |
| 20260902011932 | 94 | 114 | 9.0 | 10.0 | 0.00 | 0.00 | 0.00 | 16 | 1010.8 |
| 20260902011429 | 94 | 119 | 7.0 | 12.0 | 0.00 | 0.00 | 0.00 | 16 | 1010.8 |
| 20260902010927 | 94 | 115 | 6.0 | 10.0 | 0.00 | 0.00 | 0.00 | 16 | 1010.8 |
| 20260902010429 | 94 | 119 | 7.0 | 10.0 | 0.00 | 0.00 | 0.00 | 16 | 1010.8 |
| 20260902005931 | 94 | 149 | 5.0 | 10.0 | 0.00 | 0.00 | 0.00 | 16 | 1010.8 |
| 20260902005430 | 95 | 122 | 5.0 | 12.0 | 0.00 | 0.00 | 0.00 | 16 | 1010.8 |
| 20260902004932 | 95 | 116 | 7.0 | 11.0 | 0.00 | 0.00 | 0.00 | 16 | 1010.8 |
| 20260902004433 | 95 | 130 | 7.0 | 12.0 | 0.00 | 0.00 | 0.00 | 16 | 1010.8 |
| 20260902003927 | 95 | 105 | 9.0 | 12.0 | 0.00 | 0.00 | 0.00 | 16 | 1010.8 |
| 20260902003429 | 95 | 107 | 8.0 | 12.0 | 0.00 | 0.00 | 0.00 | 16 | 1010.8 |
| 20260902002931 | 95 | 123 | 7.0 | 13.0 | 0.00 | 0.00 | 0.00 | 16 | 1010.8 |
| 20260902002429 | 95 | 104 | 10.0 | 13.0 | 0.00 | 0.00 | 0.00 | 16 | 1010.8 |
| 20260902001931 | 95 | 127 | 10.0 | 12.0 | 0.00 | 0.00 | 0.00 | 16 | 1010.8 |
| 20260902001433 | 95 | 108 | 7.0 | 13.0 | 0.00 | 0.00 | 0.00 | 16 | 1010.8 |
| 20260902000932 | 96 | 134 | 9.0 | 15.0 | 0.00 | 0.00 | 0.00 | 16 | 1010.8 |
| 20260902000434 | 96 | 115 | 13.0 | 13.0 | 0.00 | 0.00 | 0.00 | 16 | 1010.8 |
| 20260901235935 | 96 | 127 | 8.0 | 15.0 | 0.00 | 0.00 | 0.00 | 13 | 1010.8 |
| 20260901235434 | 97 | 137 | 7.0 | 13.0 | 0.00 | 0.00 | 0.00 | 13 | 1010.8 |
| 20260901234936 | 96 | 125 | 9.0 | 14.0 | 0.00 | 0.00 | 0.00 | 13 | 1010.8 |
| 20260901234433 | 97 | 117 | 10.0 | 10.0 | 0.00 | 0.00 | 0.00 | 13 | 1010.8 |
| 20260901233932 | 97 | 128 | 8.0 | 9.0 | 0.00 | 0.00 | 0.00 | 13 | 1010.8 |
| 20260901233434 | 97 | 125 | 4.0 | 10.0 | 0.00 | 0.00 | 0.00 | 13 | 1010.8 |
| 20260901232936 | 97 | 117 | 6.0 | 7.0 | 0.00 | 0.00 | 0.00 | 13 | 1010.8 |